Weather History for Eagle, AK

Change the Weather History Date:

Tuesday, March 12, 2013

  Actual Average (PABN) Record (PABN)
Temperature  
Mean Temperature -5 °F -  
Max Temperature 14 °F 17 °F 64 °F (2006)
Min Temperature -24 °F 3 °F -16 °F (2011)
Degree Days  
Heating Degree Days 70    
Moisture  
Dew Point -20 °F    
Average Humidity 60    
Maximum Humidity 78    
Minimum Humidity 34    
Precipitation  
Precipitation 0.00 in - - ()
Sea Level Pressure  
Sea Level Pressure 30.58 in    
Wind  
Wind Speed 0 mph (East)    
Max Wind Speed 4 mph    
Max Gust Speed -    
Visibility 10 miles    
Events      
Averages and records for this station are not official NWS values.
T = Trace of Precipitation, MM = Missing Value Source: NWS Daily Summary

Daily Weather History Graph

Daily Weather History Graph

Search for Another Location

Airport:

Trip Planner

Search our weather history database for the weather conditions in past years. The results will help you decide how hot, cold, wet, or windy it might be!

Date:

Astronomy

Mar. 12, 2013 Rise Set
Actual Time 7:52 AM AKDT 7:17 PM AKDT
Civil Twilight 7:04 AM AKDT 8:06 PM AKDT
Nautical Twilight 6:06 AM AKDT 9:04 PM AKDT
Astronomical Twilight 5:03 AM AKDT 10:07 PM AKDT
Moon 7:29 AM AKDT (3/12) 9:30 PM AKDT (3/12)
Length of Visible Light 13h 01m
Length of Day
11h 24m
New Moon, 1% of the Moon is Illuminated
Mar 12
New Moon
Mar 19
First Quarter
Mar 27
Full
Apr 2
Last Quarter
Apr 10
New

Hourly Weather History & Observations

Time (AKDT) Temp. Windchill Dew Point Humidity Pressure Visibility Wind Dir Wind Speed Gust Speed Precip Events Conditions
12:53 AM -14.1 °F - -20.9 °F 71% 30.64 in 10.0 mi Calm Calm - N/A   Clear
1:53 AM -17.0 °F - -23.1 °F 74% 30.65 in 10.0 mi Calm Calm - N/A   Clear
2:53 AM -18.9 °F - -24.0 °F 78% 30.66 in 10.0 mi Calm Calm - N/A   Clear
3:53 AM -20.9 °F - -27.0 °F 73% 30.66 in 10.0 mi Calm Calm - N/A   Clear
4:53 AM -22.0 °F - -27.9 °F 74% 30.66 in 10.0 mi Calm Calm - N/A   Clear
5:53 AM -23.1 °F - -29.9 °F 70% 30.66 in 10.0 mi Calm Calm - N/A   Clear
6:53 AM -20.9 °F - -27.9 °F 70% 30.67 in 10.0 mi Calm Calm - N/A   Clear
7:53 AM -24.0 °F - -31.0 °F 70% 30.68 in 10.0 mi Calm Calm - N/A   Clear
8:53 AM -20.9 °F - -27.9 °F 70% 30.67 in 10.0 mi Calm Calm - N/A   Clear
9:53 AM -11.0 °F - -18.9 °F 68% 30.66 in 10.0 mi Calm Calm - N/A   Clear
10:53 AM -6.0 °F - -15.0 °F 65% 30.64 in 10.0 mi Calm Calm - N/A   Clear
11:53 AM -0.0 °F - -13.0 °F 54% 30.62 in 10.0 mi Calm Calm - N/A   Clear
12:53 PM 3.9 °F - -13.0 °F 46% 30.61 in 10.0 mi Calm Calm - N/A   Clear
1:53 PM 7.0 °F - -11.9 °F 42% 30.58 in 10.0 mi Calm Calm - N/A   Clear
2:53 PM 10.0 °F 3.6 °F -11.0 °F 38% 30.56 in 10.0 mi NE 3.5 mph - N/A   Clear
3:53 PM 10.9 °F - -11.0 °F 37% 30.53 in 10.0 mi Calm Calm - N/A   Clear
4:53 PM 14.0 °F - -9.9 °F 34% 30.49 in 10.0 mi Calm Calm - N/A   Clear
5:53 PM 12.9 °F - -9.9 °F 35% 30.48 in 10.0 mi Calm Calm - N/A   Clear
6:53 PM 3.9 °F -3.4 °F -13.0 °F 46% 30.47 in 10.0 mi SSE 3.5 mph - N/A   Clear
7:53 PM -6.0 °F - -17.0 °F 59% 30.46 in 10.0 mi Calm Calm - N/A   Clear
8:53 PM -11.0 °F - -20.0 °F 64% 30.46 in 10.0 mi Calm Calm - N/A   Clear
9:53 PM -15.0 °F - -23.1 °F 67% 30.45 in 10.0 mi Calm Calm - N/A   Clear
11:53 PM -20.0 °F - -27.9 °F 67% 30.43 in 10.0 mi Calm Calm - N/A   Clear